Location: Prague
(50.0830°N, 14.4670°E)
Time: 14:20:42
(UTC+01:00)

AO-27 - Visible Passes

Search period start: 09 December 2021 00:00
Search period end: 19 December 2021 00:00
Orbit: 786 x 796 km, 98.9° (Epoch: 08 December)

Date Brightness Start Highest point End Pass type
(mag) Time Alt. Az. Time Alt. Az. Time Alt. Az.
09 Dec 9.9 06:45:02 10° NE 06:49:35 29° E 06:54:05 10° SSE visible
09 Dec 9.2 16:31:14 10° E 16:33:57 14° NE 16:36:40 10° NNE visible
09 Dec 7.5 18:07:20 10° SSE 18:12:33 71° ENE 18:17:47 10° NNW visible
09 Dec 10.1 19:48:49 10° SW 19:52:33 19° W 19:56:17 10° NW visible
10 Dec 10.5 06:16:41 10° NE 06:20:05 17° E 06:23:26 10° SE visible
10 Dec 8.0 17:38:35 10° SE 17:43:30 42° ENE 17:48:25 10° N visible
10 Dec 9.3 19:18:23 10° SSW 19:23:04 33° W 19:27:48 10° NNW visible
11 Dec 8.6 17:10:16 10° ESE 17:14:34 27° ENE 17:18:52 10° N visible
11 Dec 8.3 18:48:35 10° S 18:53:43 56° WSW 18:58:54 10° NNW visible
12 Dec 9.5 06:56:50 10° NNE 07:01:39 36° E 07:06:24 10° SSE visible
12 Dec 9.1 16:42:27 10° E 16:45:45 17° NE 16:49:03 10° NNE visible
12 Dec 7.6 18:19:16 10° SSE 18:24:30 86° ENE 18:29:47 10° NNW visible
12 Dec 10.4 20:01:35 10° SW 20:04:40 16° W 20:07:47 10° NW visible
13 Dec 10.4 06:28:15 10° NE 06:32:12 21° E 06:36:05 10° SE visible
13 Dec 7.8 17:50:21 10° SE 17:55:24 52° ENE 18:00:29 10° N visible
13 Dec 9.6 19:30:45 10° SSW 19:35:08 27° W 19:39:34 10° NW visible
14 Dec 10.8 06:00:38 10° ENE 06:02:35 12° E 06:04:33 10° ESE visible
14 Dec 8.3 17:21:50 10° ESE 17:26:25 32° ENE 17:31:01 10° N visible
14 Dec 8.7 19:00:44 10° S 19:05:44 45° W 19:10:48 10° NNW visible
15 Dec 9.1 07:08:41 10° NNE 07:13:41 44° E 07:18:39 10° S visible
15 Dec 8.9 16:53:49 10° ESE 16:57:34 20° NE 17:01:19 10° N visible
15 Dec 7.7 18:31:14 10° SSE 18:36:28 78° WSW 18:41:45 10° NNW visible
15 Dec 10.6 20:14:39 10° WSW 20:16:49 12° W 20:18:59 10° WNW visible
16 Dec 10.1 06:39:56 10° NE 06:44:17 26° E 06:48:35 10° SSE visible
16 Dec 7.6 18:02:10 10° SSE 18:07:19 64° ENE 18:12:32 10° N visible
16 Dec 9.9 19:43:15 10° SW 19:47:14 22° W 19:51:15 10° NW visible
17 Dec 10.6 06:11:45 10° NE 06:14:45 15° E 06:17:42 10° ESE visible
17 Dec 8.1 17:33:30 10° SE 17:38:18 38° ENE 17:43:08 10° N visible
17 Dec 9.1 19:12:58 10° SSW 19:17:47 37° W 19:22:39 10° NNW visible
18 Dec 8.7 17:05:15 10° ESE 17:09:24 24° ENE 17:13:32 10° N visible
18 Dec 8.1 18:43:16 10° S 18:48:27 63° WSW 18:53:41 10° NNW visible
